Eastsound, WA

6:18 PM PDT on July 23, 2017 (GMT -0700)
Orcas Island

Weather History for KORS - November, 2013

Change the Weather History Date:

Friday, November 29, 2013

  Actual Average (KFHR) Record (KFHR)
Temperature  
Mean Temperature 46 °F -  
Max Temperature 48 °F 45 °F 55 °F (1999)
Min Temperature 44 °F 36 °F 19 °F (2014)
Degree Days  
Heating Degree Days 19    
Moisture  
Dew Point 47 °F    
Average Humidity 100    
Maximum Humidity 100    
Minimum Humidity 100    
Precipitation  
Precipitation 0.00 in - - ()
Sea Level Pressure  
Sea Level Pressure 30.22 in    
Wind  
Wind Speed 5 mph (South)    
Max Wind Speed 14 mph    
Max Gust Speed 17 mph    
Visibility 8 miles    
Events Rain    
Averages and records for this station are not official NWS values.
T = Trace of Precipitation, MM = Missing Value Source: NWS Daily Summary

Daily Weather History Graph

Daily Weather History Graph

Search for Another Location

Airport or City:

Trip Planner

Search our weather history database for the weather conditions in past years. The results will help you decide how hot, cold, wet, or windy it might be!

Date:

Astronomy

Nov. 29, 2013 Rise Set
Actual Time 7:41 AM PST 4:18 PM PST
Civil Twilight 7:05 AM PST 4:54 PM PST
Nautical Twilight 6:25 AM PST 5:34 PM PST
Astronomical Twilight 5:47 AM PST 6:12 PM PST
Moon 3:36 AM PST (11/29) 2:20 PM PST (11/29)
Length of Visible Light 9h 49m
Length of Day
8h 37m
Waning Crescent, 13% of the Moon is Illuminated
Nov 29
Waning Crescent
Dec 2
New
Dec 9
First Quarter
Dec 17
Full
Dec 25
Last Quarter

Hourly Weather History & Observations

Time (PST) Temp. Windchill Dew Point Humidity Pressure Visibility Wind Dir Wind Speed Gust Speed Precip Events Conditions
12:15 AM 44.6 °F - 44.6 °F 100% 30.17 in 9.0 mi Calm Calm - N/A   Overcast
12:35 AM 44.6 °F - 44.6 °F 100% 30.17 in 5.0 mi Calm Calm - N/A   Overcast
12:55 AM 44.6 °F - 44.6 °F 100% 30.17 in 8.0 mi Calm Calm - N/A   Overcast
1:15 AM 44.6 °F - 44.6 °F 100% 30.17 in 5.0 mi Calm Calm - N/A   Overcast
1:35 AM 44.6 °F - 44.6 °F 100% 30.17 in 8.0 mi Calm Calm - N/A   Overcast
1:55 AM 44.6 °F - 44.6 °F 100% 30.17 in 7.0 mi Calm Calm - N/A   Overcast
2:15 AM 46.4 °F - 46.4 °F 100% 30.17 in 10.0 mi Calm Calm - N/A   Mostly Cloudy
2:35 AM 46.4 °F 44.3 °F 46.4 °F 100% 30.17 in 10.0 mi South 4.6 mph - N/A   Overcast
2:55 AM 46.4 °F 43.5 °F 46.4 °F 100% 30.16 in 10.0 mi South 5.8 mph - N/A   Overcast
3:15 AM 46.4 °F 43.5 °F 46.4 °F 100% 30.16 in 10.0 mi South 5.8 mph - N/A   Overcast
3:35 AM 46.4 °F 42.9 °F 46.4 °F 100% 30.17 in 10.0 mi South 6.9 mph - N/A   Overcast
3:55 AM 46.4 °F 42.4 °F 46.4 °F 100% 30.17 in 10.0 mi SSW 8.1 mph - N/A   Mostly Cloudy
4:15 AM 46.4 °F 41.9 °F 46.4 °F 100% 30.18 in 10.0 mi SSW 9.2 mph - N/A   Overcast
4:35 AM 46.4 °F 40.4 °F 46.4 °F 100% 30.17 in 10.0 mi SSW 13.8 mph - N/A   Overcast
4:55 AM 46.4 °F 41.1 °F 46.4 °F 100% 30.17 in 10.0 mi South 11.5 mph - N/A   Overcast
5:15 AM 46.4 °F 41.9 °F 46.4 °F 100% 30.17 in 10.0 mi South 9.2 mph - N/A   Overcast
5:35 AM 46.4 °F 41.5 °F 46.4 °F 100% 30.17 in 10.0 mi South 10.4 mph - N/A   Overcast
5:55 AM 46.4 °F 42.4 °F 46.4 °F 100% 30.17 in 10.0 mi South 8.1 mph - N/A   Overcast
6:15 AM 46.4 °F 41.5 °F 46.4 °F 100% 30.17 in 10.0 mi South 10.4 mph 16.1 mph N/A   Mostly Cloudy
6:35 AM 46.4 °F 41.1 °F 46.4 °F 100% 30.18 in 9.0 mi South 11.5 mph 16.1 mph N/A   Mostly Cloudy
6:55 AM 44.6 °F 39.2 °F 44.6 °F 100% 30.18 in 5.0 mi South 10.4 mph 16.1 mph N/A   Overcast
7:15 AM 44.6 °F 38.8 °F 44.6 °F 100% 30.18 in 9.0 mi South 11.5 mph 16.1 mph N/A   Overcast
7:35 AM 44.6 °F 39.2 °F 44.6 °F 100% 30.19 in 9.0 mi South 10.4 mph 16.1 mph N/A   Mostly Cloudy
7:55 AM 46.4 °F 41.9 °F 46.4 °F 100% 30.19 in 10.0 mi South 9.2 mph - N/A   Mostly Cloudy
8:15 AM 46.4 °F 43.5 °F 46.4 °F 100% 30.20 in 9.0 mi South 5.8 mph - N/A   Mostly Cloudy
8:35 AM 46.4 °F 42.9 °F 46.4 °F 100% 30.21 in 8.0 mi South 6.9 mph - N/A   Mostly Cloudy
8:55 AM 46.4 °F 42.9 °F 46.4 °F 100% 30.21 in 9.0 mi South 6.9 mph - N/A   Overcast
9:15 AM 46.4 °F 42.4 °F 46.4 °F 100% 30.21 in 9.0 mi South 8.1 mph - N/A   Overcast
9:35 AM 46.4 °F 43.5 °F 46.4 °F 100% 30.21 in 8.0 mi South 5.8 mph - N/A   Mostly Cloudy
9:55 AM 48.2 °F - 48.2 °F 100% 30.22 in 9.0 mi South 8.1 mph - N/A   Mostly Cloudy
10:15 AM 48.2 °F - 48.2 °F 100% 30.22 in 9.0 mi South 8.1 mph - N/A   Mostly Cloudy
10:35 AM 48.2 °F - 48.2 °F 100% 30.23 in 10.0 mi South 9.2 mph - N/A   Mostly Cloudy
10:55 AM 48.2 °F - 48.2 °F 100% 30.23 in 10.0 mi South 6.9 mph - N/A   Overcast
11:15 AM 48.2 °F - 48.2 °F 100% 30.24 in 10.0 mi South 4.6 mph - N/A   Overcast
11:35 AM 48.2 °F - 48.2 °F 100% 30.24 in 10.0 mi SSW 6.9 mph - N/A   Overcast
11:55 AM 48.2 °F - 48.2 °F 100% 30.24 in 10.0 mi Calm Calm - N/A   Overcast
12:15 PM 48.2 °F - 48.2 °F 100% 30.23 in 9.0 mi WNW 4.6 mph - N/A   Overcast
12:35 PM 46.4 °F 43.5 °F 46.4 °F 100% 30.23 in 5.0 mi NNW 5.8 mph - N/A   Overcast
12:55 PM 46.4 °F 44.3 °F 46.4 °F 100% 30.24 in 4.0 mi NNW 4.6 mph - N/A   Overcast
1:15 PM 46.4 °F - 46.4 °F 100% 30.24 in 5.0 mi Calm Calm - N/A   Overcast
1:35 PM 46.4 °F - 46.4 °F 100% 30.24 in 4.0 mi Calm Calm - N/A   Overcast
2:00 PM 46.4 °F - 46.4 °F 100% 30.24 in 4.0 mi Calm Calm - N/A   Overcast
2:15 PM 46.4 °F - 46.4 °F 100% 30.24 in 4.0 mi Calm Calm - N/A   Overcast
2:35 PM 46.4 °F - 46.4 °F 100% 30.24 in 4.0 mi Calm Calm - N/A   Overcast
2:55 PM 46.4 °F - 46.4 °F 100% 30.24 in 5.0 mi Calm Calm - N/A   Overcast
3:15 PM 46.4 °F - 46.4 °F 100% 30.24 in 5.0 mi Calm Calm - N/A   Mostly Cloudy
3:35 PM 46.4 °F - 46.4 °F 100% 30.24 in 5.0 mi Calm Calm - N/A   Mostly Cloudy
3:55 PM 48.2 °F - 48.2 °F 100% 30.24 in 10.0 mi South 5.8 mph - N/A   Mostly Cloudy
4:15 PM 48.2 °F - 48.2 °F 100% 30.24 in 10.0 mi South 6.9 mph - N/A   Mostly Cloudy
4:35 PM 48.2 °F - 48.2 °F 100% 30.24 in 10.0 mi South 8.1 mph - N/A   Overcast
4:55 PM 46.4 °F 41.9 °F 46.4 °F 100% 30.24 in 10.0 mi South 9.2 mph - N/A   Scattered Clouds
5:15 PM 46.4 °F 41.5 °F 46.4 °F 100% 30.25 in 10.0 mi South 10.4 mph - N/A   Partly Cloudy
5:35 PM 46.4 °F 41.5 °F 46.4 °F 100% 30.24 in 10.0 mi South 10.4 mph - N/A   Scattered Clouds
5:55 PM 46.4 °F 41.1 °F 46.4 °F 100% 30.25 in 10.0 mi South 11.5 mph - N/A   Clear
6:15 PM 46.4 °F 41.5 °F 46.4 °F 100% 30.24 in 10.0 mi South 10.4 mph - N/A   Clear
6:35 PM 46.4 °F 41.1 °F 46.4 °F 100% 30.25 in 10.0 mi South 11.5 mph - N/A   Clear
6:55 PM 46.4 °F 40.4 °F 46.4 °F 100% 30.25 in 10.0 mi South 13.8 mph 17.3 mph N/A   Clear
7:15 PM 46.4 °F 43.5 °F 46.4 °F 100% 30.26 in 10.0 mi South 5.8 mph - N/A   Scattered Clouds
7:35 PM 46.4 °F 42.4 °F 46.4 °F 100% 30.26 in 10.0 mi South 8.1 mph - N/A   Overcast
7:55 PM 46.4 °F 41.5 °F 46.4 °F 100% 30.26 in 10.0 mi South 10.4 mph - N/A   Overcast
8:15 PM 46.4 °F 43.5 °F 46.4 °F 100% 30.26 in 10.0 mi South 5.8 mph - N/A   Mostly Cloudy
8:35 PM 48.2 °F - 48.2 °F 100% 30.25 in 10.0 mi SSE 8.1 mph - N/A   Partly Cloudy
8:55 PM 48.2 °F - 48.2 °F 100% 30.26 in 8.0 mi South 8.1 mph 16.1 mph N/A Rain Light Rain
9:15 PM 46.4 °F 44.3 °F 46.4 °F 100% 30.27 in 5.0 mi SSE 4.6 mph - N/A Rain Light Rain
9:35 PM 46.4 °F 44.3 °F 46.4 °F 100% 30.27 in 8.0 mi South 4.6 mph - N/A Rain Light Rain
9:55 PM 46.4 °F 44.3 °F 46.4 °F 100% 30.27 in 8.0 mi South 4.6 mph - N/A Rain Light Rain
10:15 PM 46.4 °F 45.2 °F 46.4 °F 100% 30.28 in 5.0 mi South 3.5 mph - N/A Rain Light Rain
10:35 PM 46.4 °F 45.2 °F 46.4 °F 100% 30.28 in 5.0 mi South 3.5 mph - N/A Rain Light Rain
10:55 PM 46.4 °F 43.5 °F 46.4 °F 100% 30.28 in 5.0 mi South 5.8 mph - N/A Rain Light Rain
11:15 PM 46.4 °F 44.3 °F 46.4 °F 100% 30.28 in 9.0 mi South 4.6 mph - N/A   Mostly Cloudy
11:35 PM 46.4 °F 44.3 °F 46.4 °F 100% 30.29 in 8.0 mi South 4.6 mph - N/A Rain Light Rain
11:55 PM 46.4 °F 44.3 °F 46.4 °F 100% 30.29 in 9.0 mi South 4.6 mph - N/A   Overcast